Tracking 19644 objects as of 24-Apr-2019
HD Live streaming from Space Station
objects crossing your sky now

COSMOS 1317 DEB

Track COSMOS 1317 DEB now!


NORAD ID: 35511
Int'l Code: 1981-108L
Perigee: 7,037.0 km
Apogee: 33,399.3 km
Inclination: 74.8 °
Period: 719.1 minutes
Semi major axis: 26589 km
RCS: 0.1259 m2 (medium)
Launch date: October 31, 1981
Source: Commonwealth of Independent States (former USSR) (CIS)
Launch site: PLESETSK MISSILE AND SPACE COMPLEX (PKMTR)

Note: This is SATELLITE DEBRIS
aabbcc
Your satellite tracking list
Your tracking list is empty




NASA's NSSDC Master Catalog

Two Line Element Set (TLE):
1 35511U 81108L   13186.90636025 -.00000041 +00000-0 +00000-0 0  9999
2 35511 074.8372 292.9860 4957355 108.1771 014.1548 02.00238154034091
Source of the keplerian elements: AFSPC